Overview Statistics Trail Chart Weather Telemetry Raw packets
 

This is the latest recevied weather packets stored in our database for station/object OK2ILA-10. If no packets are shown the sender has not sent any weather packets the latest 10 day(s).

<< 18 19 20 21 22 23 24 >>
Time Temp. Humidity Pressure Rain* Wind** Luminosity Snow
1788525721 25° C 51% 1015.7 hPa - - - -
1788525125 25° C 52% 1015.7 hPa - - - -
1788525121 25° C 52% 1015.7 hPa - - - -
1788524524 25.56° C 52% 1016 hPa - - - -
1788524520 25.56° C 52% 1016 hPa - - - -
1788523924 26.11° C 52% 1016.2 hPa - - - -
1788523920 26.11° C 52% 1016.2 hPa - - - -
1788523324 25° C 53% 1016.2 hPa - - - -
1788523320 25° C 53% 1016.2 hPa - - - -
1788522724 23.89° C 55% 1016.6 hPa - - - -
1788522720 23.89° C 55% 1016.6 hPa - - - -
1788522141 23.89° C 56% 1016.7 hPa - - - -
1788522141 23.89° C 56% 1016.7 hPa - - - -
1788521523 25° C 53% 1016.8 hPa - - - -
1788521519 25° C 53% 1016.8 hPa - - - -
1788520923 25° C 53% 1016.9 hPa - - - -
1788520919 25° C 53% 1016.9 hPa - - - -
1788520323 24.44° C 54% 1016.8 hPa - - - -
1788520319 24.44° C 54% 1016.8 hPa - - - -
1788519719 23.89° C 56% 1017 hPa - - - -
1788519123 22.78° C 58% 1017.2 hPa - - - -
1788519119 22.78° C 58% 1017.2 hPa - - - -
1788518522 22.78° C 59% 1017.3 hPa - - - -
1788518518 22.78° C 59% 1017.3 hPa - - - -
1788517922 22.22° C 59% 1017.4 hPa - - - -

* Rain since midnight (hover to see other rain measurements)
** Current wind speed in m/s (hover to see current wind gust speed)